Find Starlink 11444

NORAD ID: 62409 Int'l Des: 2024-249 Owner: SPXS Country: US Constellation: starlink operational
LEOCIRCULAR

Live-Position

3D-Globus wird geladen...

Über Starlink 11444

Beschreibung wird geladen...

Nächste Überflüge

Passes for default location (London). Set your location on the main map for personalized predictions.

Höhenverlauf

Loading altitude history...

Zweizeiliger Elementsatz

1 62409U 24249A 26120.29709299 .00242458 00000-0 18324-2 0 9995
2 62409 42.9988 216.8943 0001229 273.6827 86.3900 15.70918721 77590
Epoch: 30. Apr. 2026 • Age: 8 hours

Aktueller Status

Höhe 358.6 km
Geschwindigkeit 7.70 km/s
Subsatellitenpunkt -15.56°S, 40.85°W
Startdatum 23. Dez. 2024
Alter 1.3 years
Typ internet

Technische Details

Klassifizierung Payload
Masse 960.00 kg
Trockenmasse 910.00 kg
Gesamtmasse 960.00 kg
Länge 0.30 m
Durchmesser 4.10 m
Spannweite 29.00 m
Form Box + pan
Hersteller SPXS
Bus-Typ Starlink V2MD
Phasenstatus In Orbit
Besitzer/Staat SPXS/US

Most Searched